BEESAT-1

Last updated on Sun Jun 21 2026 00:03:20 GMT+0000 (Coordinated Universal Time)

1 35933U 09051C 26170.71084495 .00000603 00000+0 13077-3 0 9991 2 35933 98.3961 78.2733 0004371 207.4388 152.6582 14.61723870889551
UTC large
Height (km)
Speed (km/s)
/
Latitude / Longitude
Inclination (degrees)
Orbital Period (minutes)
Azimuth
Elevation
Range (km)
Doppler Factor

Next 0 passes for location: London (51.5072 / 0.1276)

No passes found over London.
BEESAT-1